| time (UTC) | temp F | wind direction | speed knots | gust knots | rain 1hr in | rain 24hr in | rain mn in | humidity % | barometer mb |
| 20260904001315 | 89 | 326 | 0.0 | 0.0 | 0.00 | 0.02 | 0.00 | 23 | 1011.8 |
| 20260904000303 | 89 | 155 | 0.0 | 2.6 | 0.00 | 0.02 | 0.00 | 22 | 1011.7 |
| 20260903235755 | 89 | 74 | 0.0 | 0.0 | 0.00 | 0.02 | 0.00 | 24 | 1011.8 |
| 20260903235249 | 89 | 69 | 0.0 | 0.0 | 0.00 | 0.02 | 0.00 | 23 | 1011.8 |
| 20260903234743 | 90 | 304 | 0.0 | 0.0 | 0.00 | 0.02 | 0.00 | 22 | 1011.9 |
| 20260903234237 | 89 | 58 | 0.9 | 3.5 | 0.00 | 0.02 | 0.00 | 23 | 1011.9 |
| 20260903233731 | 89 | 227 | 0.9 | 3.5 | 0.00 | 0.02 | 0.00 | 22 | 1011.9 |
| 20260903233225 | 90 | 172 | 0.0 | 0.0 | 0.00 | 0.02 | 0.00 | 24 | 1011.9 |
| 20260903232720 | 90 | 273 | 0.0 | 0.0 | 0.00 | 0.02 | 0.00 | 23 | 1011.9 |
| 20260903232215 | 90 | 101 | 0.0 | 0.0 | 0.00 | 0.02 | 0.00 | 24 | 1011.9 |
| 20260903231201 | 90 | 77 | 0.0 | 0.0 | 0.00 | 0.02 | 0.00 | 24 | 1011.9 |
| 20260903230655 | 91 | 151 | 0.0 | 0.0 | 0.00 | 0.02 | 0.00 | 22 | 1011.9 |
| 20260903230150 | 91 | 155 | 0.0 | 4.3 | 0.00 | 0.02 | 0.00 | 22 | 1012.0 |
| 20260903225644 | 92 | 183 | 0.0 | 4.3 | 0.00 | 0.02 | 0.00 | 22 | 1012.0 |
| 20260903225137 | 92 | 149 | 0.9 | 5.2 | 0.00 | 0.02 | 0.00 | 22 | 1012.0 |
| 20260903224126 | 92 | 355 | 0.0 | 0.0 | 0.00 | 0.02 | 0.00 | 25 | 1011.9 |
| 20260903223619 | 91 | 333 | 0.0 | 3.5 | 0.00 | 0.02 | 0.00 | 24 | 1012.0 |
| 20260903223113 | 92 | 210 | 0.0 | 3.5 | 0.00 | 0.02 | 0.00 | 23 | 1011.9 |
| 20260903222607 | 92 | 125 | 0.9 | 5.2 | 0.00 | 0.02 | 0.00 | 22 | 1011.9 |
| 20260903222101 | 92 | 134 | 0.0 | 5.2 | 0.00 | 0.02 | 0.00 | 20 | 1012.2 |
| 20260903221556 | 92 | 128 | 0.0 | 0.0 | 0.00 | 0.02 | 0.00 | 23 | 1012.0 |
| 20260903215551 | 91 | 121 | 0.0 | 1.7 | 0.00 | 0.02 | 0.00 | 23 | 1012.3 |
| 20260903215053 | 90 | 85 | 0.0 | 0.0 | 0.00 | 0.02 | 0.00 | 23 | 1012.4 |
| 20260903214549 | 91 | 169 | 0.0 | 0.0 | 0.00 | 0.02 | 0.00 | 23 | 1012.5 |
| 20260903214047 | 90 | 170 | 0.0 | 0.0 | 0.00 | 0.02 | 0.00 | 19 | 1012.6 |
| 20260903213547 | 90 | 138 | 0.0 | 0.0 | 0.00 | 0.02 | 0.00 | 22 | 1012.6 |
| 20260903213045 | 90 | 137 | 0.0 | 0.0 | 0.00 | 0.02 | 0.00 | 23 | 1012.7 |
| 20260903212544 | 91 | 137 | 0.0 | 0.0 | 0.00 | 0.02 | 0.00 | 22 | 1012.9 |
| 20260903212047 | 90 | 134 | 0.0 | 0.0 | 0.00 | 0.02 | 0.00 | 26 | 1012.9 |
| 20260903211044 | 90 | 292 | 0.0 | 0.0 | 0.00 | 0.02 | 0.00 | 22 | 1013.0 |
| 20260903210540 | 90 | 111 | 0.0 | 0.0 | 0.00 | 0.02 | 0.00 | 21 | 1013.1 |
| 20260903210039 | 91 | 113 | 0.0 | 0.0 | 0.00 | 0.02 | 0.00 | 24 | 1013.2 |
| 20260903205039 | 89 | 105 | 0.0 | 0.0 | 0.00 | 0.02 | 0.00 | 24 | 1013.2 |
| 20260903204538 | 89 | 67 | 0.0 | 0.0 | 0.00 | 0.02 | 0.00 | 25 | 1013.3 |
| 20260903203533 | 88 | 22 | 0.0 | 0.0 | 0.00 | 0.02 | 0.00 | 22 | 1013.4 |
| 20260903203032 | 88 | 78 | 0.0 | 0.0 | 0.00 | 0.02 | 0.00 | 26 | 1013.7 |
| 20260903201532 | 88 | 78 | 0.0 | 0.0 | 0.00 | 0.02 | 0.00 | 27 | 1013.8 |
| 20260903201033 | 88 | 80 | 0.0 | 0.0 | 0.00 | 0.02 | 0.00 | 28 | 1013.8 |
| 20260903200533 | 87 | 80 | 0.0 | 0.0 | 0.00 | 0.02 | 0.00 | 29 | 1013.8 |
| 20260903195532 | 88 | 196 | 0.0 | 0.0 | 0.00 | 0.02 | 0.00 | 30 | 1014.0 |
| 20260903195033 | 87 | 196 | 0.0 | 0.0 | 0.00 | 0.02 | 0.00 | 26 | 1014.0 |
| 20260903194530 | 87 | 231 | 0.0 | 0.9 | 0.00 | 0.02 | 0.00 | 27 | 1014.1 |
| 20260903194029 | 86 | 231 | 0.0 | 0.9 | 0.00 | 0.02 | 0.00 | 27 | 1014.1 |
| 20260903193528 | 86 | 232 | 0.0 | 0.0 | 0.00 | 0.02 | 0.00 | 30 | 1014.3 |
| 20260903193028 | 86 | 232 | 0.0 | 0.0 | 0.00 | 0.02 | 0.00 | 23 | 1014.4 |
| 20260903192528 | 86 | 229 | 0.0 | 0.0 | 0.00 | 0.02 | 0.00 | 26 | 1014.4 |
| 20260903192029 | 86 | 229 | 0.0 | 0.0 | 0.00 | 0.02 | 0.00 | 27 | 1014.5 |
| 20260903191530 | 85 | 253 | 0.0 | 0.0 | 0.00 | 0.02 | 0.00 | 26 | 1014.5 |
| 20260903191029 | 85 | 177 | 0.0 | 0.0 | 0.00 | 0.02 | 0.00 | 29 | 1014.5 |
| 20260903190529 | 85 | 165 | 0.0 | 0.0 | 0.00 | 0.02 | 0.00 | 28 | 1014.6 |
| 20260903190026 | 85 | 245 | 0.0 | 0.0 | 0.00 | 0.02 | 0.00 | 28 | 1014.6 |
| 20260903185524 | 85 | 105 | 0.0 | 0.0 | 0.00 | 0.02 | 0.00 | 28 | 1014.7 |
| 20260903185025 | 84 | 106 | 0.0 | 0.0 | 0.00 | 0.02 | 0.00 | 29 | 1014.7 |
| 20260903184526 | 84 | 106 | 0.0 | 1.7 | 0.00 | 0.02 | 0.00 | 29 | 1014.8 |
| 20260903184025 | 84 | 106 | 0.0 | 4.3 | 0.00 | 0.02 | 0.00 | 28 | 1015.0 |
| 20260903183028 | 83 | 84 | 0.0 | 0.9 | 0.00 | 0.02 | 0.00 | 31 | 1015.1 |
| 20260903182527 | 83 | 84 | 0.0 | 0.0 | 0.00 | 0.02 | 0.00 | 28 | 1015.2 |
| 20260903182028 | 83 | 84 | 0.0 | 0.0 | 0.00 | 0.02 | 0.00 | 32 | 1015.3 |
| 20260903181519 | 83 | 84 | 0.0 | 0.0 | 0.00 | 0.02 | 0.00 | 31 | 1015.4 |
| 20260903181015 | 83 | 84 | 0.0 | 0.0 | 0.00 | 0.02 | 0.00 | 32 | 1015.4 |
| 20260903180002 | 82 | 86 | 0.0 | 2.6 | 0.00 | 0.02 | 0.00 | 33 | 1015.5 |
| 20260903175458 | 82 | 281 | 0.0 | 2.6 | 0.00 | 0.02 | 0.00 | 32 | 1015.5 |
| 20260903174950 | 82 | 281 | 0.0 | 2.6 | 0.00 | 0.02 | 0.00 | 32 | 1015.7 |
| 20260903174445 | 81 | 280 | 0.0 | 2.6 | 0.00 | 0.02 | 0.00 | 32 | 1015.7 |
| 20260903173938 | 81 | 226 | 0.0 | 0.0 | 0.00 | 0.02 | 0.00 | 33 | 1015.8 |
| 20260903173433 | 81 | 226 | 0.0 | 0.0 | 0.00 | 0.02 | 0.00 | 31 | 1015.9 |
| 20260903172926 | 80 | 226 | 0.0 | 0.0 | 0.00 | 0.02 | 0.00 | 32 | 1015.9 |
| 20260903171410 | 80 | 225 | 0.0 | 0.9 | 0.00 | 0.02 | 0.00 | 37 | 1015.9 |
| 20260903170903 | 79 | 225 | 0.0 | 0.0 | 0.00 | 0.02 | 0.00 | 38 | 1015.9 |
| 20260903170357 | 79 | 242 | 0.0 | 0.0 | 0.00 | 0.02 | 0.00 | 38 | 1015.9 |
| 20260903165345 | 78 | 242 | 0.0 | 0.9 | 0.00 | 0.02 | 0.00 | 36 | 1016.0 |
| 20260903164838 | 78 | 242 | 0.0 | 0.9 | 0.00 | 0.02 | 0.00 | 39 | 1016.0 |
| 20260903164332 | 78 | 242 | 0.0 | 0.0 | 0.00 | 0.02 | 0.00 | 40 | 1016.0 |
| 20260903163826 | 77 | 242 | 0.0 | 0.0 | 0.00 | 0.02 | 0.00 | 39 | 1016.0 |
| 20260903163322 | 77 | 242 | 0.0 | 0.0 | 0.00 | 0.02 | 0.00 | 42 | 1016.0 |
| 20260903162814 | 76 | 242 | 0.0 | 0.0 | 0.00 | 0.02 | 0.00 | 41 | 1016.1 |
| 20260903162307 | 76 | 241 | 0.0 | 0.9 | 0.00 | 0.02 | 0.00 | 44 | 1016.0 |
| 20260903161800 | 76 | 242 | 0.0 | 0.9 | 0.00 | 0.02 | 0.00 | 43 | 1016.0 |
| 20260903161255 | 75 | 242 | 0.0 | 0.0 | 0.00 | 0.02 | 0.00 | 46 | 1016.0 |
| 20260903160749 | 75 | 242 | 0.0 | 0.0 | 0.00 | 0.02 | 0.00 | 46 | 1016.0 |
| 20260903160242 | 74 | 242 | 0.0 | 0.0 | 0.00 | 0.02 | 0.00 | 48 | 1016.0 |
| 20260903155737 | 73 | 242 | 0.0 | 0.9 | 0.00 | 0.02 | 0.00 | 49 | 1016.0 |
| 20260903155230 | 73 | 242 | 0.0 | 0.9 | 0.00 | 0.02 | 0.00 | 50 | 1016.0 |
| 20260903154726 | 72 | 242 | 0.0 | 0.0 | 0.00 | 0.02 | 0.00 | 50 | 1015.9 |
| 20260903154219 | 72 | 242 | 0.0 | 0.9 | 0.00 | 0.02 | 0.00 | 51 | 1016.0 |
| 20260903153712 | 71 | 242 | 0.0 | 0.9 | 0.00 | 0.02 | 0.00 | 52 | 1016.0 |
| 20260903153206 | 71 | 242 | 0.0 | 0.0 | 0.00 | 0.02 | 0.00 | 52 | 1016.0 |
| 20260903152701 | 71 | 242 | 0.0 | 0.0 | 0.00 | 0.02 | 0.00 | 52 | 1016.1 |
| 20260903152154 | 70 | 242 | 0.0 | 0.0 | 0.00 | 0.02 | 0.00 | 55 | 1016.0 |
| 20260903151144 | 69 | 239 | 0.0 | 0.0 | 0.00 | 0.02 | 0.00 | 58 | 1016.1 |
| 20260903150638 | 69 | 230 | 0.0 | 0.0 | 0.00 | 0.02 | 0.00 | 60 | 1016.1 |
| 20260903150130 | 68 | 229 | 0.0 | 3.5 | 0.00 | 0.02 | 0.00 | 62 | 1016.2 |
| 20260903145625 | 67 | 226 | 0.0 | 3.5 | 0.00 | 0.02 | 0.00 | 63 | 1016.2 |
| 20260903145118 | 67 | 248 | 0.0 | 0.0 | 0.00 | 0.02 | 0.00 | 65 | 1016.2 |
| 20260903144612 | 66 | 248 | 0.0 | 0.0 | 0.00 | 0.02 | 0.00 | 65 | 1016.4 |
| 20260903144107 | 66 | 248 | 0.0 | 0.0 | 0.00 | 0.02 | 0.00 | 67 | 1016.4 |
| 20260903143602 | 65 | 248 | 0.0 | 0.0 | 0.00 | 0.02 | 0.00 | 68 | 1016.5 |
| 20260903143054 | 64 | 248 | 0.0 | 0.0 | 0.00 | 0.02 | 0.00 | 68 | 1016.4 |
| 20260903142548 | 64 | 252 | 0.0 | 0.0 | 0.00 | 0.02 | 0.00 | 70 | 1016.5 |
| 20260903142042 | 63 | 250 | 0.0 | 0.0 | 0.00 | 0.02 | 0.00 | 72 | 1016.5 |
| 20260903141537 | 62 | 251 | 0.0 | 0.0 | 0.00 | 0.02 | 0.00 | 73 | 1016.5 |
| 20260903141031 | 62 | 248 | 0.0 | 1.7 | 0.00 | 0.02 | 0.00 | 74 | 1016.4 |
| 20260903140018 | 60 | 261 | 0.0 | 1.7 | 0.00 | 0.02 | 0.00 | 76 | 1016.2 |
| 20260903135513 | 60 | 262 | 0.0 | 0.9 | 0.00 | 0.02 | 0.00 | 77 | 1016.2 |
| 20260903135007 | 59 | 261 | 0.0 | 0.0 | 0.00 | 0.02 | 0.00 | 78 | 1016.2 |
| 20260903134502 | 59 | 263 | 0.0 | 0.0 | 0.00 | 0.02 | 0.00 | 78 | 1016.2 |
| 20260903133954 | 59 | 263 | 0.0 | 0.0 | 0.00 | 0.02 | 0.00 | 78 | 1016.2 |
| 20260903133449 | 58 | 263 | 0.0 | 0.0 | 0.00 | 0.02 | 0.00 | 78 | 1016.1 |
| 20260903132942 | 58 | 263 | 0.0 | 0.0 | 0.00 | 0.02 | 0.00 | 78 | 1016.0 |
| 20260903132437 | 58 | 263 | 0.0 | 0.0 | 0.00 | 0.02 | 0.00 | 78 | 1015.9 |
| 20260903131931 | 58 | 263 | 0.0 | 0.0 | 0.00 | 0.02 | 0.00 | 78 | 1015.9 |
| 20260903131424 | 58 | 263 | 0.0 | 0.0 | 0.00 | 0.02 | 0.00 | 78 | 1015.9 |
| 20260903130918 | 58 | 263 | 0.0 | 0.0 | 0.00 | 0.02 | 0.00 | 78 | 1015.9 |
| 20260903125906 | 58 | 263 | 0.0 | 0.0 | 0.00 | 0.02 | 0.00 | 78 | 1015.7 |
| 20260903125400 | 58 | 263 | 0.0 | 0.0 | 0.00 | 0.02 | 0.00 | 78 | 1015.8 |
| 20260903124348 | 58 | 263 | 0.0 | 0.0 | 0.00 | 0.02 | 0.00 | 78 | 1015.5 |
| 20260903123843 | 58 | 263 | 0.0 | 0.0 | 0.00 | 0.02 | 0.00 | 78 | 1015.4 |
| 20260903123336 | 58 | 263 | 0.0 | 0.0 | 0.00 | 0.02 | 0.00 | 78 | 1015.5 |
| 20260903122831 | 58 | 263 | 0.0 | 0.9 | 0.00 | 0.02 | 0.00 | 79 | 1015.2 |
| 20260903122326 | 58 | 263 | 0.0 | 0.9 | 0.00 | 0.02 | 0.00 | 79 | 1015.2 |
| 20260903121313 | 58 | 263 | 0.0 | 0.0 | 0.00 | 0.02 | 0.00 | 79 | 1015.2 |
| 20260903120806 | 58 | 263 | 0.0 | 0.0 | 0.00 | 0.02 | 0.00 | 79 | 1015.2 |
| 20260903120301 | 58 | 263 | 0.0 | 0.0 | 0.00 | 0.02 | 0.00 | 79 | 1015.1 |
| 20260903115755 | 58 | 263 | 0.0 | 0.0 | 0.00 | 0.02 | 0.00 | 79 | 1015.2 |
| 20260903115248 | 58 | 263 | 0.0 | 0.0 | 0.00 | 0.02 | 0.00 | 79 | 1015.2 |
| 20260903114742 | 58 | 263 | 0.0 | 0.0 | 0.00 | 0.02 | 0.00 | 79 | 1015.1 |
| 20260903114236 | 58 | 263 | 0.0 | 0.0 | 0.00 | 0.02 | 0.00 | 79 | 1015.1 |
| 20260903113224 | 58 | 263 | 0.0 | 0.9 | 0.00 | 0.02 | 0.00 | 79 | 1015.1 |
| 20260903112723 | 59 | 263 | 0.0 | 0.9 | 0.00 | 0.02 | 0.00 | 79 | 1015.1 |
| 20260903112219 | 59 | 263 | 0.0 | 0.0 | 0.00 | 0.02 | 0.00 | 79 | 1015.1 |
| 20260903111721 | 59 | 263 | 0.0 | 0.0 | 0.00 | 0.02 | 0.00 | 79 | 1015.0 |
| 20260903110713 | 59 | 263 | 0.0 | 0.0 | 0.00 | 0.02 | 0.00 | 78 | 1015.0 |
| 20260903105710 | 59 | 263 | 0.0 | 0.0 | 0.00 | 0.02 | 0.00 | 78 | 1014.8 |
| 20260903105207 | 59 | 263 | 0.0 | 0.0 | 0.00 | 0.02 | 0.00 | 78 | 1014.7 |
| 20260903104208 | 60 | 263 | 0.0 | 0.0 | 0.00 | 0.02 | 0.00 | 78 | 1014.7 |
| 20260903103208 | 60 | 263 | 0.0 | 0.0 | 0.00 | 0.02 | 0.00 | 78 | 1014.8 |
| 20260903102709 | 60 | 263 | 0.0 | 0.0 | 0.00 | 0.02 | 0.00 | 78 | 1014.8 |
| 20260903102207 | 60 | 263 | 0.0 | 0.0 | 0.00 | 0.02 | 0.00 | 78 | 1014.8 |
| 20260903101709 | 60 | 263 | 0.0 | 0.0 | 0.00 | 0.02 | 0.00 | 78 | 1015.0 |
| 20260903101208 | 60 | 263 | 0.0 | 0.0 | 0.00 | 0.02 | 0.00 | 77 | 1015.1 |
| 20260903100707 | 60 | 263 | 0.0 | 0.0 | 0.00 | 0.02 | 0.00 | 77 | 1015.1 |
| 20260903100208 | 60 | 263 | 0.0 | 0.0 | 0.00 | 0.02 | 0.00 | 77 | 1015.1 |
| 20260903095207 | 61 | 263 | 0.0 | 0.0 | 0.00 | 0.02 | 0.00 | 77 | 1015.1 |
| 20260903094208 | 61 | 263 | 0.0 | 0.0 | 0.00 | 0.02 | 0.00 | 77 | 1015.1 |
| 20260903093208 | 61 | 263 | 0.0 | 0.9 | 0.00 | 0.02 | 0.00 | 77 | 1015.1 |
| 20260903092707 | 61 | 263 | 0.0 | 0.9 | 0.00 | 0.02 | 0.00 | 77 | 1015.0 |
| 20260903092208 | 61 | 263 | 0.0 | 0.9 | 0.00 | 0.02 | 0.00 | 77 | 1015.1 |
| 20260903091707 | 61 | 263 | 0.0 | 0.9 | 0.00 | 0.02 | 0.00 | 76 | 1015.2 |
| 20260903091207 | 61 | 263 | 0.0 | 0.9 | 0.00 | 0.02 | 0.00 | 77 | 1015.1 |
| 20260903090708 | 61 | 263 | 0.0 | 0.9 | 0.00 | 0.02 | 0.00 | 77 | 1015.0 |
| 20260903090207 | 61 | 263 | 0.0 | 0.9 | 0.00 | 0.02 | 0.00 | 77 | 1015.1 |
| 20260903085710 | 62 | 264 | 0.0 | 0.0 | 0.00 | 0.02 | 0.00 | 77 | 1015.0 |
| 20260903084658 | 62 | 264 | 0.0 | 0.0 | 0.00 | 0.02 | 0.00 | 77 | 1015.0 |
| 20260903084152 | 62 | 264 | 0.0 | 0.0 | 0.00 | 0.02 | 0.00 | 77 | 1015.0 |
| 20260903083646 | 62 | 264 | 0.0 | 0.0 | 0.00 | 0.02 | 0.00 | 76 | 1015.0 |
| 20260903083139 | 62 | 264 | 0.0 | 0.0 | 0.00 | 0.02 | 0.00 | 76 | 1015.0 |
| 20260903082634 | 62 | 264 | 0.0 | 0.0 | 0.00 | 0.02 | 0.00 | 76 | 1015.0 |
| 20260903082128 | 62 | 264 | 0.0 | 0.0 | 0.00 | 0.02 | 0.00 | 76 | 1014.8 |
| 20260903081116 | 62 | 264 | 0.0 | 0.0 | 0.00 | 0.02 | 0.00 | 75 | 1015.0 |
| 20260903080609 | 63 | 264 | 0.0 | 0.0 | 0.00 | 0.02 | 0.00 | 75 | 1015.1 |
| 20260903075558 | 63 | 264 | 0.0 | 0.0 | 0.00 | 0.02 | 0.00 | 75 | 1015.2 |
| 20260903075052 | 63 | 264 | 0.0 | 0.0 | 0.00 | 0.02 | 0.00 | 75 | 1015.3 |
| 20260903074546 | 63 | 264 | 0.0 | 0.0 | 0.00 | 0.02 | 0.00 | 75 | 1015.3 |
| 20260903074040 | 63 | 264 | 0.0 | 0.0 | 0.00 | 0.02 | 0.00 | 75 | 1015.3 |
| 20260903072522 | 63 | 264 | 0.0 | 0.0 | 0.00 | 0.02 | 0.00 | 75 | 1015.3 |
| 20260903072015 | 63 | 264 | 0.0 | 0.0 | 0.00 | 0.02 | 0.00 | 75 | 1015.4 |
| 20260903071509 | 63 | 264 | 0.0 | 0.0 | 0.00 | 0.02 | 0.00 | 75 | 1015.3 |
| 20260903071004 | 63 | 264 | 0.0 | 0.0 | 0.00 | 0.02 | 0.00 | 75 | 1015.4 |
| 20260903070457 | 63 | 265 | 0.0 | 0.0 | 0.00 | 0.02 | 0.00 | 75 | 1015.3 |
| 20260903065953 | 64 | 265 | 0.0 | 0.0 | 0.00 | 0.02 | 0.00 | 75 | 1015.3 |
| 20260903064941 | 63 | 265 | 0.0 | 0.0 | 0.00 | 0.02 | 0.00 | 75 | 1015.2 |
| 20260903064433 | 63 | 265 | 0.0 | 0.0 | 0.00 | 0.02 | 0.00 | 75 | 1015.3 |
| 20260903063927 | 63 | 265 | 0.0 | 0.0 | 0.00 | 0.02 | 0.00 | 75 | 1015.4 |
| 20260903062923 | 64 | 265 | 0.0 | 0.0 | 0.00 | 0.02 | 0.00 | 75 | 1015.3 |
| 20260903062423 | 64 | 265 | 0.0 | 0.0 | 0.00 | 0.02 | 0.00 | 75 | 1015.4 |
| 20260903061926 | 64 | 265 | 0.0 | 0.0 | 0.00 | 0.02 | 0.00 | 75 | 1015.4 |
| 20260903061421 | 64 | 265 | 0.0 | 0.0 | 0.00 | 0.02 | 0.00 | 75 | 1015.4 |
| 20260903060419 | 64 | 265 | 0.0 | 0.0 | 0.00 | 0.02 | 0.00 | 75 | 1015.7 |
| 20260903055918 | 64 | 265 | 0.0 | 0.0 | 0.00 | 0.02 | 0.02 | 75 | 1015.7 |
| 20260903055417 | 64 | 265 | 0.0 | 0.0 | 0.00 | 0.02 | 0.02 | 74 | 1015.5 |
| 20260903054918 | 64 | 265 | 0.0 | 0.0 | 0.00 | 0.02 | 0.02 | 74 | 1015.4 |
| 20260903054418 | 64 | 265 | 0.0 | 0.0 | 0.00 | 0.02 | 0.02 | 74 | 1015.3 |
| 20260903053918 | 64 | 265 | 0.0 | 0.0 | 0.00 | 0.02 | 0.02 | 74 | 1015.5 |
| 20260903053418 | 65 | 265 | 0.0 | 0.0 | 0.00 | 0.02 | 0.02 | 74 | 1015.5 |
| 20260903052915 | 65 | 265 | 0.0 | 0.0 | 0.00 | 0.02 | 0.02 | 74 | 1015.3 |
| 20260903052413 | 65 | 265 | 0.0 | 0.0 | 0.00 | 0.02 | 0.02 | 74 | 1015.1 |
| 20260903051914 | 65 | 265 | 0.0 | 0.0 | 0.00 | 0.02 | 0.02 | 74 | 1015.3 |
| 20260903051413 | 65 | 265 | 0.0 | 0.0 | 0.00 | 0.02 | 0.02 | 74 | 1015.2 |
| 20260903050915 | 66 | 330 | 0.0 | 0.0 | 0.00 | 0.02 | 0.02 | 73 | 1015.3 |
| 20260903050414 | 66 | 330 | 0.0 | 0.0 | 0.00 | 0.02 | 0.02 | 72 | 1015.4 |
| 20260903045914 | 66 | 330 | 0.0 | 0.0 | 0.00 | 0.02 | 0.02 | 72 | 1015.4 |
| 20260903045413 | 66 | 330 | 0.0 | 0.0 | 0.00 | 0.02 | 0.02 | 72 | 1015.4 |
| 20260903044915 | 66 | 330 | 0.0 | 0.0 | 0.00 | 0.02 | 0.02 | 72 | 1015.5 |
| 20260903043414 | 67 | 330 | 0.0 | 0.0 | 0.00 | 0.02 | 0.02 | 70 | 1015.5 |
| 20260903042414 | 67 | 330 | 0.0 | 0.0 | 0.00 | 0.02 | 0.02 | 69 | 1015.5 |
| 20260903041913 | 67 | 330 | 0.0 | 0.0 | 0.00 | 0.02 | 0.02 | 68 | 1015.5 |
| 20260903041413 | 68 | 330 | 0.0 | 0.0 | 0.01 | 0.02 | 0.02 | 67 | 1015.5 |
| 20260903040914 | 68 | 330 | 0.0 | 0.0 | 0.02 | 0.02 | 0.02 | 67 | 1015.5 |
| 20260903035909 | 68 | 330 | 0.0 | 0.0 | 0.02 | 0.02 | 0.02 | 65 | 1015.5 |
| 20260903035403 | 69 | 330 | 0.0 | 0.0 | 0.02 | 0.02 | 0.02 | 64 | 1015.7 |
| 20260903034856 | 69 | 330 | 0.0 | 0.0 | 0.02 | 0.02 | 0.02 | 63 | 1015.5 |
| 20260903034353 | 69 | 283 | 0.0 | 0.0 | 0.02 | 0.02 | 0.02 | 63 | 1015.7 |
| 20260903033849 | 70 | 333 | 0.0 | 0.0 | 0.02 | 0.02 | 0.02 | 62 | 1015.7 |
| 20260903033348 | 71 | 330 | 0.0 | 0.0 | 0.02 | 0.02 | 0.02 | 62 | 1015.7 |
| 20260903032845 | 71 | 351 | 0.0 | 0.0 | 0.02 | 0.02 | 0.02 | 61 | 1015.5 |
| 20260903031843 | 73 | 279 | 0.0 | 0.0 | 0.02 | 0.02 | 0.02 | 59 | 1015.9 |
| 20260903030343 | 73 | 252 | 0.0 | 0.0 | 0.00 | 0.00 | 0.00 | 52 | 1016.6 |
| 20260903025841 | 73 | 63 | 0.0 | 0.0 | 0.00 | 0.00 | 0.00 | 51 | 1016.1 |
| 20260903024842 | 73 | 63 | 0.0 | 0.0 | 0.00 | 0.00 | 0.00 | 50 | 1015.2 |
| 20260903024340 | 73 | 111 | 0.0 | 0.0 | 0.00 | 0.00 | 0.00 | 50 | 1014.7 |
| 20260903023838 | 74 | 209 | 0.0 | 0.0 | 0.00 | 0.00 | 0.00 | 49 | 1014.5 |
| 20260903023338 | 74 | 247 | 0.0 | 0.0 | 0.00 | 0.00 | 0.00 | 48 | 1014.4 |
| 20260903022837 | 74 | 346 | 0.0 | 0.0 | 0.00 | 0.00 | 0.00 | 48 | 1014.4 |
| 20260903022337 | 74 | 323 | 0.0 | 0.0 | 0.00 | 0.00 | 0.00 | 48 | 1014.3 |
| 20260903021836 | 75 | 323 | 0.0 | 0.0 | 0.00 | 0.00 | 0.00 | 47 | 1014.4 |
| 20260903020829 | 75 | 332 | 0.0 | 0.0 | 0.00 | 0.00 | 0.00 | 46 | 1014.5 |
| 20260903020323 | 75 | 329 | 0.0 | 0.0 | 0.00 | 0.00 | 0.00 | 45 | 1014.4 |
| 20260903015817 | 76 | 342 | 0.0 | 0.0 | 0.00 | 0.00 | 0.00 | 44 | 1014.4 |
| 20260903015310 | 76 | 321 | 0.0 | 0.0 | 0.00 | 0.00 | 0.00 | 43 | 1014.4 |
| 20260903014805 | 76 | 337 | 0.0 | 0.0 | 0.00 | 0.00 | 0.00 | 42 | 1014.1 |
| 20260903014258 | 77 | 294 | 0.0 | 0.0 | 0.00 | 0.00 | 0.00 | 41 | 1014.1 |
| 20260903013756 | 78 | 284 | 0.0 | 0.0 | 0.00 | 0.00 | 0.00 | 40 | 1014.1 |
| 20260903012741 | 78 | 71 | 0.0 | 0.0 | 0.00 | 0.00 | 0.00 | 38 | 1014.1 |
| 20260903012234 | 79 | 340 | 0.0 | 0.0 | 0.00 | 0.00 | 0.00 | 38 | 1014.1 |
| 20260903011223 | 80 | 347 | 0.0 | 3.5 | 0.00 | 0.00 | 0.00 | 37 | 1014.0 |
| 20260903010717 | 81 | 338 | 0.0 | 3.5 | 0.00 | 0.00 | 0.00 | 36 | 1013.9 |
| 20260903005704 | 82 | 0 | 0.9 | 7.0 | 0.00 | 0.00 | 0.00 | 35 | 1013.9 |
| 20260903005158 | 83 | 9 | 0.0 | 0.0 | 0.00 | 0.00 | 0.00 | 33 | 1013.9 |
| 20260903004655 | 83 | 17 | 0.0 | 0.0 | 0.00 | 0.00 | 0.00 | 31 | 1013.7 |
| 20260903004148 | 83 | 297 | 0.0 | 0.9 | 0.00 | 0.00 | 0.00 | 30 | 1013.6 |
| 20260903003640 | 84 | 315 | 0.0 | 0.9 | 0.00 | 0.00 | 0.00 | 30 | 1013.6 |
| 20260903003135 | 84 | 342 | 0.0 | 1.7 | 0.00 | 0.00 | 0.00 | 31 | 1013.6 |
| 20260903002628 | 84 | 309 | 0.9 | 5.2 | 0.00 | 0.00 | 0.00 | 30 | 1013.4 |
| 20260903002122 | 85 | 339 | 0.9 | 5.2 | 0.00 | 0.00 | 0.00 | 31 | 1013.4 |
| 20260903001617 | 85 | 329 | 0.0 | 0.0 | 0.00 | 0.00 | 0.00 | 31 | 1013.4 |